| time (UTC) | temp F | wind direction | speed MPH | gust MPH | rain 1hr in | rain 24hr in | rain mn in | humidity % | barometer mb |
| 20260831075210 | 69 | 243 | 7.0 | 16.0 | 0.00 | 0.06 | 0.06 | 77 | 1017.7 |
| 20260831074210 | 68 | 281 | 5.0 | 15.0 | 0.00 | 0.06 | 0.06 | 79 | 1017.7 |
| 20260831073210 | 68 | 242 | 7.0 | 13.0 | 0.00 | 0.06 | 0.06 | 82 | 1017.7 |
| 20260831072210 | 67 | 255 | 6.0 | 13.0 | 0.00 | 0.06 | 0.06 | 84 | 1017.7 |
| 20260831071210 | 67 | 215 | 6.0 | 13.0 | 0.00 | 0.06 | 0.06 | 86 | 1017.7 |
| 20260831070211 | 66 | 216 | 7.0 | 14.0 | 0.00 | 0.06 | 0.06 | 88 | 1017.7 |
| 20260831065210 | 65 | 248 | 5.0 | 12.0 | 0.00 | 0.06 | 0.06 | 89 | 1017.7 |
| 20260831064210 | 65 | 213 | 5.0 | 12.0 | 0.00 | 0.06 | 0.06 | 90 | 1017.8 |
| 20260831063210 | 64 | 267 | 8.0 | 14.0 | 0.00 | 0.06 | 0.06 | 91 | 1017.6 |
| 20260831062210 | 64 | 255 | 9.0 | 16.0 | 0.00 | 0.06 | 0.06 | 91 | 1017.5 |
| 20260831061210 | 64 | 294 | 7.0 | 13.0 | 0.00 | 0.06 | 0.06 | 92 | 1017.4 |
| 20260831060210 | 63 | 281 | 6.0 | 12.0 | 0.00 | 0.06 | 0.06 | 92 | 1017.2 |
| 20260831055210 | 63 | 232 | 8.0 | 14.0 | 0.00 | 0.06 | 0.06 | 92 | 1017.3 |
| 20260831054210 | 63 | 217 | 7.0 | 18.0 | 0.00 | 0.06 | 0.06 | 92 | 1017.2 |
| 20260831053210 | 62 | 204 | 8.0 | 14.0 | 0.00 | 0.06 | 0.06 | 92 | 1017.1 |
| 20260831052210 | 62 | 273 | 7.0 | 19.0 | 0.00 | 0.06 | 0.06 | 92 | 1016.9 |
| 20260831051210 | 62 | 239 | 9.0 | 19.0 | 0.00 | 0.06 | 0.06 | 93 | 1017.0 |
| 20260831050210 | 63 | 274 | 8.0 | 18.0 | 0.00 | 0.06 | 0.06 | 93 | 1016.9 |
| 20260831045210 | 63 | 231 | 12.0 | 19.0 | 0.00 | 0.06 | 0.06 | 93 | 1016.9 |
| 20260831044210 | 63 | 214 | 7.0 | 15.0 | 0.00 | 0.06 | 0.06 | 93 | 1016.8 |
| 20260831043210 | 63 | 240 | 7.0 | 14.0 | 0.00 | 0.06 | 0.06 | 93 | 1016.8 |
| 20260831042210 | 63 | 244 | 7.0 | 12.0 | 0.00 | 0.06 | 0.06 | 93 | 1016.7 |
| 20260831041210 | 63 | 219 | 7.0 | 12.0 | 0.00 | 0.06 | 0.06 | 93 | 1016.6 |
| 20260831040210 | 63 | 211 | 6.0 | 12.0 | 0.00 | 0.06 | 0.06 | 93 | 1016.7 |
| 20260831035210 | 63 | 231 | 4.0 | 8.0 | 0.00 | 0.06 | 0.06 | 93 | 1016.6 |
| 20260831034210 | 63 | 170 | 5.0 | 11.0 | 0.00 | 0.06 | 0.06 | 93 | 1016.5 |
| 20260831033210 | 63 | 221 | 3.0 | 9.0 | 0.00 | 0.06 | 0.06 | 93 | 1016.5 |
| 20260831032210 | 63 | 192 | 4.0 | 9.0 | 0.00 | 0.06 | 0.06 | 93 | 1016.5 |
| 20260831031210 | 63 | 194 | 2.0 | 8.0 | 0.00 | 0.06 | 0.06 | 93 | 1016.4 |
| 20260831030210 | 64 | 180 | 3.0 | 4.0 | 0.00 | 0.06 | 0.06 | 93 | 1016.3 |
| 20260831025210 | 64 | 234 | 3.0 | 7.0 | 0.00 | 0.06 | 0.06 | 93 | 1016.3 |
| 20260831024211 | 64 | 244 | 3.0 | 7.0 | 0.00 | 0.06 | 0.06 | 93 | 1016.3 |
| 20260831023210 | 64 | 268 | 5.0 | 8.0 | 0.00 | 0.06 | 0.06 | 93 | 1016.3 |
| 20260831022210 | 64 | 229 | 4.0 | 11.0 | 0.00 | 0.06 | 0.06 | 93 | 1016.2 |
| 20260831021210 | 64 | 229 | 4.0 | 8.0 | 0.00 | 0.06 | 0.06 | 93 | 1016.1 |
| 20260831020210 | 64 | 245 | 4.0 | 9.0 | 0.00 | 0.06 | 0.06 | 93 | 1015.9 |
| 20260831015210 | 64 | 238 | 5.0 | 8.0 | 0.00 | 0.06 | 0.06 | 93 | 1015.9 |
| 20260831014210 | 64 | 219 | 7.0 | 11.0 | 0.00 | 0.06 | 0.06 | 92 | 1015.6 |
| 20260831013210 | 64 | 198 | 7.0 | 14.0 | 0.00 | 0.06 | 0.06 | 92 | 1015.7 |
| 20260831012210 | 64 | 263 | 10.0 | 17.0 | 0.00 | 0.06 | 0.06 | 92 | 1015.6 |
| 20260831011210 | 64 | 217 | 7.0 | 18.0 | 0.00 | 0.06 | 0.06 | 92 | 1015.4 |
| 20260831010209 | 64 | 229 | 7.0 | 15.0 | 0.00 | 0.06 | 0.06 | 92 | 1015.5 |
| 20260831005210 | 64 | 191 | 8.0 | 13.0 | 0.00 | 0.06 | 0.06 | 92 | 1015.4 |
| 20260831004210 | 64 | 234 | 8.0 | 16.0 | 0.00 | 0.06 | 0.06 | 91 | 1015.4 |
| 20260831003210 | 65 | 191 | 6.0 | 15.0 | 0.00 | 0.06 | 0.06 | 91 | 1015.3 |
| 20260831002209 | 65 | 225 | 5.0 | 13.0 | 0.02 | 0.06 | 0.06 | 91 | 1015.2 |
| 20260831001209 | 65 | 184 | 8.0 | 13.0 | 0.03 | 0.06 | 0.06 | 90 | 1015.3 |
| 20260831000211 | 65 | 182 | 6.0 | 9.0 | 0.04 | 0.06 | 0.06 | 90 | 1015.2 |
| 20260830235210 | 65 | 150 | 5.0 | 11.0 | 0.05 | 0.06 | 0.06 | 90 | 1014.9 |
| 20260830234209 | 66 | 172 | 5.0 | 9.0 | 0.05 | 0.06 | 0.06 | 89 | 1014.9 |
| 20260830233210 | 66 | 247 | 5.0 | 8.0 | 0.05 | 0.06 | 0.06 | 88 | 1014.7 |
| 20260830232210 | 67 | 235 | 7.0 | 11.0 | 0.04 | 0.05 | 0.05 | 88 | 1015.0 |
| 20260830231209 | 67 | 211 | 6.0 | 14.0 | 0.02 | 0.03 | 0.03 | 87 | 1015.1 |
| 20260830230210 | 67 | 267 | 6.0 | 12.0 | 0.02 | 0.02 | 0.02 | 87 | 1015.7 |
| 20260830225209 | 67 | 285 | 7.0 | 12.0 | 0.02 | 0.02 | 0.02 | 85 | 1015.6 |
| 20260830224209 | 68 | 223 | 4.0 | 6.0 | 0.01 | 0.02 | 0.01 | 84 | 1014.3 |
| 20260830223209 | 69 | 163 | 2.0 | 4.0 | 0.01 | 0.02 | 0.01 | 82 | 1013.6 |
| 20260830222209 | 69 | 236 | 0.0 | 3.0 | 0.01 | 0.02 | 0.01 | 82 | 1013.8 |
| 20260830221211 | 69 | 279 | 2.0 | 13.0 | 0.01 | 0.01 | 0.01 | 80 | 1014.3 |
| 20260830220210 | 69 | 293 | 9.0 | 17.0 | 0.00 | 0.00 | 0.00 | 78 | 1015.0 |
| 20260830215211 | 69 | 261 | 6.0 | 11.0 | 0.00 | 0.00 | 0.00 | 76 | 1014.0 |
| 20260830214210 | 69 | 235 | 2.0 | 4.0 | 0.00 | 0.00 | 0.00 | 75 | 1013.5 |
| 20260830213210 | 69 | 250 | 2.0 | 3.0 | 0.00 | 0.00 | 0.00 | 75 | 1013.0 |
| 20260830212210 | 69 | 220 | 0.0 | 3.0 | 0.00 | 0.00 | 0.00 | 75 | 1013.0 |
| 20260830211210 | 69 | 251 | 1.0 | 3.0 | 0.00 | 0.00 | 0.00 | 75 | 1013.0 |
| 20260830210210 | 69 | 244 | 0.0 | 0.0 | 0.00 | 0.00 | 0.00 | 74 | 1013.2 |
| 20260830205212 | 70 | 244 | 0.0 | 0.0 | 0.00 | 0.00 | 0.00 | 73 | 1013.2 |
| 20260830204210 | 70 | 244 | 0.0 | 0.0 | 0.00 | 0.00 | 0.00 | 73 | 1013.3 |
| 20260830203210 | 71 | 244 | 0.0 | 0.0 | 0.00 | 0.00 | 0.00 | 72 | 1013.4 |
| 20260830202210 | 71 | 181 | 0.0 | 0.0 | 0.00 | 0.00 | 0.00 | 71 | 1013.4 |
| 20260830201210 | 71 | 181 | 0.0 | 0.0 | 0.00 | 0.00 | 0.00 | 71 | 1013.3 |
| 20260830200210 | 72 | 183 | 0.0 | 2.0 | 0.00 | 0.00 | 0.00 | 70 | 1013.4 |
| 20260830195210 | 72 | 181 | 1.0 | 4.0 | 0.00 | 0.00 | 0.00 | 69 | 1013.4 |
| 20260830194211 | 73 | 173 | 1.0 | 4.0 | 0.00 | 0.00 | 0.00 | 68 | 1013.3 |
| 20260830193210 | 73 | 202 | 2.0 | 5.0 | 0.00 | 0.00 | 0.00 | 68 | 1013.3 |
| 20260830192210 | 74 | 189 | 2.0 | 4.0 | 0.00 | 0.00 | 0.00 | 68 | 1013.3 |
| 20260830191210 | 74 | 202 | 2.0 | 3.0 | 0.00 | 0.00 | 0.00 | 68 | 1013.3 |
| 20260830190210 | 75 | 182 | 1.0 | 2.0 | 0.00 | 0.00 | 0.00 | 66 | 1013.3 |
| 20260830185210 | 75 | 199 | 0.0 | 0.0 | 0.00 | 0.00 | 0.00 | 65 | 1013.2 |
| 20260830184210 | 76 | 169 | 0.0 | 1.0 | 0.00 | 0.00 | 0.00 | 62 | 1013.1 |
| 20260830183210 | 78 | 200 | 2.0 | 3.0 | 0.00 | 0.00 | 0.00 | 58 | 1013.1 |
| 20260830182210 | 78 | 263 | 2.0 | 5.0 | 0.00 | 0.00 | 0.00 | 56 | 1013.1 |
| 20260830181210 | 79 | 263 | 1.0 | 3.0 | 0.00 | 0.00 | 0.00 | 55 | 1013.1 |
| 20260830180210 | 80 | 227 | 2.0 | 3.0 | 0.00 | 0.00 | 0.00 | 53 | 1013.1 |
| 20260830175210 | 80 | 260 | 2.0 | 4.0 | 0.00 | 0.01 | 0.00 | 52 | 1013.1 |
| 20260830174210 | 80 | 265 | 2.0 | 6.0 | 0.00 | 0.01 | 0.00 | 51 | 1013.1 |
| 20260830173210 | 80 | 236 | 0.0 | 6.0 | 0.00 | 0.01 | 0.00 | 50 | 1013.3 |
| 20260830172210 | 81 | 266 | 3.0 | 9.0 | 0.00 | 0.01 | 0.00 | 49 | 1013.3 |
| 20260830171210 | 81 | 252 | 4.0 | 9.0 | 0.00 | 0.01 | 0.00 | 49 | 1013.2 |
| 20260830170210 | 81 | 248 | 6.0 | 9.0 | 0.00 | 0.01 | 0.00 | 49 | 1013.3 |
| 20260830165210 | 82 | 254 | 4.0 | 9.0 | 0.00 | 0.01 | 0.00 | 48 | 1013.3 |
| 20260830164210 | 82 | 234 | 6.0 | 10.0 | 0.00 | 0.01 | 0.00 | 48 | 1013.3 |
| 20260830163210 | 82 | 196 | 2.0 | 7.0 | 0.00 | 0.01 | 0.00 | 49 | 1013.4 |
| 20260830162210 | 82 | 267 | 4.0 | 12.0 | 0.00 | 0.01 | 0.00 | 48 | 1013.4 |
| 20260830161210 | 82 | 241 | 6.0 | 13.0 | 0.00 | 0.01 | 0.00 | 47 | 1013.4 |
| 20260830160210 | 82 | 261 | 7.0 | 11.0 | 0.00 | 0.01 | 0.00 | 47 | 1013.3 |
| 20260830155210 | 82 | 350 | 5.0 | 12.0 | 0.00 | 0.01 | 0.00 | 47 | 1013.4 |
| 20260830154210 | 82 | 260 | 2.0 | 9.0 | 0.00 | 0.01 | 0.00 | 47 | 1013.5 |
| 20260830153210 | 82 | 257 | 7.0 | 14.0 | 0.00 | 0.01 | 0.00 | 47 | 1013.5 |
| 20260830152210 | 83 | 268 | 7.0 | 14.0 | 0.00 | 0.01 | 0.00 | 47 | 1013.5 |
| 20260830151210 | 83 | 295 | 4.0 | 11.0 | 0.00 | 0.01 | 0.00 | 47 | 1013.6 |
| 20260830150210 | 83 | 263 | 5.0 | 11.0 | 0.00 | 0.01 | 0.00 | 48 | 1013.7 |
| 20260830145210 | 83 | 296 | 11.0 | 18.0 | 0.00 | 0.01 | 0.00 | 47 | 1013.9 |
| 20260830144210 | 84 | 269 | 8.0 | 18.0 | 0.00 | 0.01 | 0.00 | 47 | 1013.9 |
| 20260830143210 | 84 | 279 | 11.0 | 15.0 | 0.00 | 0.01 | 0.00 | 47 | 1013.8 |
| 20260830142210 | 84 | 304 | 8.0 | 17.0 | 0.00 | 0.01 | 0.00 | 46 | 1013.9 |
| 20260830141210 | 84 | 272 | 7.0 | 14.0 | 0.00 | 0.01 | 0.00 | 46 | 1014.0 |
| 20260830140210 | 85 | 262 | 9.0 | 18.0 | 0.00 | 0.01 | 0.00 | 45 | 1014.2 |
| 20260830135210 | 85 | 299 | 9.0 | 14.0 | 0.00 | 0.01 | 0.00 | 46 | 1014.2 |
| 20260830134210 | 85 | 217 | 8.0 | 15.0 | 0.00 | 0.01 | 0.00 | 45 | 1014.3 |
| 20260830133210 | 85 | 245 | 6.0 | 15.0 | 0.00 | 0.01 | 0.00 | 47 | 1014.4 |
| 20260830132210 | 85 | 284 | 5.0 | 13.0 | 0.00 | 0.01 | 0.00 | 48 | 1014.5 |
| 20260830131210 | 86 | 250 | 8.0 | 14.0 | 0.00 | 0.01 | 0.00 | 48 | 1014.7 |
| 20260830130210 | 86 | 267 | 7.0 | 18.0 | 0.00 | 0.01 | 0.00 | 46 | 1014.7 |
| 20260830125210 | 86 | 221 | 3.0 | 15.0 | 0.00 | 0.01 | 0.00 | 47 | 1014.7 |
| 20260830124210 | 86 | 331 | 7.0 | 14.0 | 0.00 | 0.01 | 0.00 | 47 | 1014.8 |
| 20260830123210 | 86 | 234 | 6.0 | 15.0 | 0.00 | 0.01 | 0.00 | 48 | 1014.8 |
| 20260830122210 | 86 | 288 | 7.0 | 14.0 | 0.00 | 0.01 | 0.00 | 48 | 1014.9 |
| 20260830121210 | 85 | 252 | 8.0 | 12.0 | 0.00 | 0.01 | 0.00 | 50 | 1015.1 |
| 20260830120210 | 85 | 198 | 6.0 | 11.0 | 0.00 | 0.01 | 0.00 | 51 | 1015.1 |
| 20260830115210 | 84 | 267 | 7.0 | 14.0 | 0.00 | 0.01 | 0.00 | 52 | 1015.1 |
| 20260830114210 | 83 | 15 | 6.0 | 11.0 | 0.00 | 0.01 | 0.00 | 55 | 1015.2 |
| 20260830113210 | 82 | 231 | 7.0 | 13.0 | 0.00 | 0.01 | 0.00 | 55 | 1015.3 |
| 20260830112210 | 82 | 256 | 8.0 | 16.0 | 0.00 | 0.01 | 0.00 | 55 | 1015.3 |
| 20260830111210 | 82 | 355 | 5.0 | 11.0 | 0.00 | 0.01 | 0.00 | 58 | 1015.3 |
| 20260830110210 | 81 | 259 | 6.0 | 14.0 | 0.00 | 0.01 | 0.00 | 58 | 1015.3 |
| 20260830105210 | 80 | 278 | 9.0 | 17.0 | 0.00 | 0.01 | 0.00 | 58 | 1015.4 |
| 20260830104210 | 80 | 273 | 6.0 | 17.0 | 0.00 | 0.01 | 0.00 | 58 | 1015.5 |
| 20260830103210 | 80 | 262 | 8.0 | 16.0 | 0.00 | 0.01 | 0.00 | 59 | 1015.5 |
| 20260830102210 | 79 | 271 | 7.0 | 14.0 | 0.00 | 0.01 | 0.00 | 62 | 1015.6 |
| 20260830101210 | 78 | 270 | 9.0 | 15.0 | 0.00 | 0.01 | 0.00 | 63 | 1015.6 |
| 20260830100210 | 77 | 289 | 10.0 | 17.0 | 0.00 | 0.01 | 0.00 | 64 | 1015.6 |
| 20260830095210 | 77 | 238 | 8.0 | 12.0 | 0.00 | 0.01 | 0.00 | 66 | 1015.7 |
| 20260830094210 | 76 | 264 | 7.0 | 12.0 | 0.00 | 0.01 | 0.00 | 66 | 1015.6 |
| 20260830093210 | 76 | 219 | 8.0 | 16.0 | 0.00 | 0.01 | 0.00 | 66 | 1015.8 |
| 20260830092210 | 76 | 240 | 5.0 | 12.0 | 0.00 | 0.01 | 0.00 | 67 | 1015.8 |
| 20260830091210 | 75 | 222 | 4.0 | 11.0 | 0.00 | 0.01 | 0.00 | 68 | 1015.8 |
| 20260830090210 | 75 | 198 | 3.0 | 7.0 | 0.00 | 0.01 | 0.00 | 69 | 1015.9 |
| 20260830085210 | 75 | 199 | 4.0 | 10.0 | 0.00 | 0.01 | 0.00 | 68 | 1016.1 |
| 20260830084210 | 76 | 187 | 4.0 | 8.0 | 0.00 | 0.01 | 0.00 | 68 | 1016.0 |
| 20260830083210 | 75 | 212 | 5.0 | 10.0 | 0.00 | 0.01 | 0.00 | 69 | 1016.1 |
| 20260830082210 | 75 | 185 | 4.0 | 13.0 | 0.00 | 0.01 | 0.00 | 69 | 1016.0 |
| 20260830081210 | 74 | 184 | 4.0 | 12.0 | 0.00 | 0.01 | 0.00 | 70 | 1015.9 |
| 20260830080210 | 74 | 167 | 4.0 | 10.0 | 0.00 | 0.01 | 0.00 | 71 | 1016.1 |